#timestamp,LO_Frequency,Hit,StdDev 
1566421215.6,286047001.8,N
1566421235.5,286047002.5,N
1566421255.3,286047002.0,N
1566421275.1,286047004.4,N
1566421295.9,286047001.4,N
1566421315.7,286047004.2,N
1566421335.6,286047004.2,N
1566421355.4,286047003.7,N
1566421375.2,286047006.0,Y
1566421395.1,286047000.1,P
1566421396.0,286047000.1,N
1566421415.8,286047002.7,N
1566421435.6,286047002.8,N
1566421455.5,286047000.6,N
1566421475.3,286047000.8,N
1566421495.2,286047000.3,N
1566421515.9,286046998.6,N
1566421535.7,286047000.7,N
1566421555.6,286047000.2,N
1566421575.4,286047002.6,N
1566421595.2,286047002.4,N
1566421615.1,286047001.6,N
1566421616.0,286047001.6,N
1566421635.8,286047001.9,N
1566421655.7,286047001.5,N
1566421675.5,286047000.4,N
1566421695.3,286047000.4,N
1566421715.2,286047002.5,N
1566421735.0,286047000.6,N
1566421735.9,286047000.6,N
1566421755.8,286047000.3,N
1566421775.6,286047000.2,N
1566421795.4,286047000.5,N
1566421815.3,286047000.2,N
1566421835.1,286047001.0,N
1566421855.8,286047002.8,N
1566421875.7,286047002.7,N
1566421895.5,286047001.7,N
1566421915.4,286046999.9,N
1566421935.2,286046999.8,N
1566421955.0,286047001.8,N
1566421955.9,286047001.8,N
1566421975.8,286047001.6,N
1566421995.6,286047002.5,N
1566422015.5,286047002.4,N
1566422035.3,286047001.5,N
1566422055.1,286047002.2,N
1566422075.9,286047001.9,N
1566422095.7,286047001.4,N
1566422115.6,286047003.8,Y
1566422135.4,286047000.4,P
1566422155.2,286047002.7,P
1566422175.1,286047004.2,P
1566422176.0,286047004.2,N
1566422195.8,286047001.6,N
1566422215.7,286047003.4,N
1566422235.5,286047002.0,N
1566422255.3,286047002.6,N
1566422275.2,286046999.8,N
1566422295.0,286047000.2,N
1566422295.9,286047000.2,N
1566422315.8,286047002.8,N
1566422335.6,286047000.7,N
1566422355.4,286046998.7,N
1566422375.3,286046998.1,N
1566422395.1,286047000.9,N
1566422415.9,286046998.1,N
1566422435.7,286046998.1,N
1566422455.5,286047000.8,N
1566422475.4,286047000.9,N
1566422495.2,286047000.4,N
1566422515.0,286046998.1,N
1566422515.9,286046998.1,N
1566422535.8,286047000.6,N
1566422555.6,286046999.8,N
1566422575.5,286047002.0,N
1566422595.3,286046999.7,N
1566422615.1,286047001.2,N
1566422635.9,286047000.9,N
1566422655.7,286047000.0,N
1566422675.5,286047002.4,N
1566422695.4,286047002.2,N
1566422715.2,286047002.8,N
1566422735.1,286047002.7,N
1566422736.0,286047002.7,N
1566422755.8,286047001.4,N
1566422775.6,286046999.7,N
1566422795.5,286047002.5,N
1566422815.3,286047002.1,N
1566422835.2,286047001.0,N
1566422855.9,286047002.3,N
1566422875.7,286047002.4,N
1566422895.6,286047003.6,N
1566422915.4,286047003.3,N
1566422935.3,286047005.7,Y
1566422955.1,286047003.9,P
1566422956.0,286047003.9,N
1566422975.8,286047002.3,N
1566422995.7,286047002.3,N
1566423015.5,286047002.0,N
1566423035.4,286047003.9,Y
1566423055.2,286047000.2,P
1566423075.1,286047000.4,N
1566423076.0,286047000.4,N
1566423095.8,286047002.8,N
1566423115.6,286046999.8,N
1566423135.5,286046998.3,N
1566423155.3,286047000.4,N
1566423175.2,286047000.5,N
1566423195.9,286047000.3,N
1566423215.7,286047001.1,N
1566423235.6,286047000.7,N
1566423255.4,286047000.4,N
1566423275.2,286047002.8,N
1566423295.1,286047000.0,N
1566423296.0,286047000.0,N
1566423315.8,286046998.4,N
1566423335.7,286047000.6,N
1566423355.5,286047001.2,N
1566423375.3,286047000.8,N
1566423395.2,286047000.8,N
1566423415.0,286047002.8,N
1566423415.9,286047002.8,N
1566423435.8,286047000.7,N
1566423455.6,286046999.8,N
1566423475.4,286047001.0,N
1566423495.3,286047000.1,N
1566423515.1,286047000.7,N
1566423535.9,286046998.6,N
1566423555.7,286046999.0,N
1566423575.5,286046996.5,N
1566423595.4,286046998.8,N
1566423615.2,286046998.7,N
1566423635.0,286046998.5,N
1566423635.9,286046998.5,N
1566423655.8,286046998.2,N
1566423675.6,286047000.3,N
1566423695.5,286047000.4,N
1566423715.3,286047001.2,N
1566423735.1,286046998.4,N
1566423755.9,286046998.4,N
1566423775.7,286046999.6,N
1566423795.6,286046997.6,N
1566423815.4,286046997.9,N
1566423835.2,286046996.0,N
1566423855.1,286046996.3,N
1566423856.0,286046996.3,N
1566423875.8,286046993.3,Y
1566423895.7,286046995.4,P
1566423915.5,286046995.0,N
1566423935.3,286046995.1,N
1566423955.2,286046995.5,N
1566423975.0,286046995.6,N
1566423975.9,286046995.6,N
1566423995.8,286046994.0,Y
1566424015.6,286046998.5,P
1566424035.4,286047001.0,N
1566424055.3,286047000.1,N
1566424075.1,286047001.0,N
1566424095.8,286047000.8,N
1566424115.7,286047000.8,N
1566424135.5,286046998.4,N
1566424155.4,286046999.1,N
1566424175.2,286046999.0,N
1566424195.0,286046997.2,N
1566424195.9,286046997.2,N
1566424215.8,286046995.0,Y
1566424235.6,286046999.6,P
1566424255.5,286046998.5,P
1566424275.3,286046998.1,P
1566424295.1,286047000.0,N
1566424315.9,286047000.3,N
1566424335.7,286047001.6,N
1566424355.6,286046999.7,N
1566424375.4,286047002.8,N
1566424395.2,286047011.9,Y
1566424415.1,286046999.8,P
1566424416.0,286046999.8,N
1566424435.8,286047002.8,P
1566424455.6,286047000.6,N
1566424475.5,286047000.5,N
1566424495.3,286047002.8,N
1566424515.2,286047002.1,N
1566424535.9,286047002.0,N
1566424555.7,286046999.7,N
1566424575.6,286047002.7,N
1566424595.4,286047001.7,N
1566424615.3,286047002.5,N
1566424635.1,286047001.6,N
1566424655.8,286047001.9,N
1566424675.7,286047001.9,N
1566424695.5,286047002.1,N
1566424715.4,286047004.0,Y
1566424735.2,286046999.7,P
1566424755.0,286046999.9,N
1566424755.9,286046999.9,N
1566424775.8,286046999.7,N
1566424795.6,286047002.3,Y
